{"data":{"norad_id":59481,"epoch":"2026-05-24T23:36:19.849248Z","epoch_age_seconds":79543,"freshness":"FRESH","line1":"1 59481U 24070A   26144.98356307  .00000044  00000+0  40850-4 0  9996","line2":"2 59481  98.7166 153.2442 0005447  40.8483 319.3101 14.20732217109809","mean_motion":14.20732217,"eccentricity":0.0005447,"inclination_deg":98.7166,"raan_deg":153.2442,"arg_perigee_deg":40.8483,"mean_anomaly_deg":319.3101,"bstar":4.085e-5,"rev_number":10980,"period_min":101.35618681476,"perigee_km":818.95516347304,"apogee_km":826.79994873046,"semimajor_km":7201.0145561018,"source":"CELESTRAK","updated_at":"2026-05-25T13:38:01.454490Z"}}